Regional Weather Roundup
Issued by NWS

Home | Current Version | Previous Version | Text Only | Print | Product List | Glossary Off
Versions: 1 2 3 4 5 6 7 8 9 10 11 12 13 14 15 16 17 18 19 20 21 22 23 24 25 26 27 28 29 30 31 32 33 34 35 36 37 38 39 40 41 42 43 44 45 46 47 48 49 50

960
ASUS43 KFSD 242202
RWRSD

WEATHER ROUNDUP FOR SOUTH DAKOTA
NATIONAL WEATHER SERVICE SIOUX FALLS SD
500 PM CDT FRI MAR 24 2017

NOTE: "FAIR" INDICATES FEW OR NO CLOUDS BELOW 12,000 FEET WITH NO
SIGNIFICANT WEATHER AND/OR OBSTRUCTIONS TO VISIBILITY.


SDZ001>005-009-010-012>017-242300-
NORTHWEST AND NORTH CENTRAL SOUTH DAKOTA

CITY           SKY/WX    TMP DP  RH WIND       PRES   REMARKS
BUFFALO          N/A     61  32  33 S7        29.98F
FAITH            N/A     60  36  40 NE7       30.07F
MOBRIDGE       SUNNY     58  31  35 E5        30.09S
$$

SDZ012>016-024>037-041>051-057-063-072>074-242300-
SOUTHWEST AND SOUTH CENTRAL SOUTH DAKOTA

CITY           SKY/WX    TMP DP  RH WIND       PRES   REMARKS
RAPID CTY ARPT SUNNY     61  30  31 NE12      30.06F
PIERRE         SUNNY     57  32  38 E15       30.09S
CUSTER         PTSUNNY   53  24  32 VRB7      30.08S
ELLSWORTH AFB  MOSUNNY   61  30  31 NE12      30.06F
PHILIP         MOSUNNY   64  34  32 E13G18    30.07S
PINE RIDGE     PTSUNNY   58  30  34 NE9G21    30.08R
SPEARFISH      FAIR      57  25  28 CALM      30.07F
WINNER         FAIR      54  33  45 NE18      30.08S
$$

SDZ004>011-016>023-039-040-242300-
NORTHEAST SOUTH DAKOTA

CITY           SKY/WX    TMP DP  RH WIND       PRES   REMARKS
ABERDEEN       CLOUDY    49  30  48 NE10      30.14F
WATERTOWN      CLOUDY    38  33  82 NE15      30.11F
BROOKINGS      CLOUDY    38  34  85 N14       30.09F
SISSETON         N/A     45  35  68 NE14      30.15R
$$

SDZ017-020-022-023-036>040-048>070-242300-
SOUTHEAST SOUTH DAKOTA

CITY           SKY/WX    TMP DP  RH WIND       PRES   REMARKS
SIOUX FALLS    CLOUDY    42  37  82 NE18      30.06F
HURON          MOSUNNY   47  36  65 NE14      30.11F
CHAMBERLAIN    MOSUNNY   54  35  48 NE13G18   30.10S
MITCHELL       CLOUDY    48  38  68 N17       30.10S
YANKTON        CLOUDY    45  37  76 N21       30.05S
$$

ABBREVIATIONS USED IN REMARKS
   TC - TEMPERATURE IN CELSIUS
  WCI - WIND CHILL INDEX
   HX - HEAT INDEX
  VSB - VISIBILITY





USA.gov is the U.S. government's official web portal to all federal, state and local government web resources and services.